HB9CJD-1 Weather Reports


time (UTC)temp
F
wind
direction
speed
knots
gust
knots
rain 1hr
in
rain 24hr
in
rain mn
in
humidity
%
barometer
mb
20260507181855 62 0 0.0 0.0 0.00 0.00 0.00 55 1017.2
20260507180852 63 0 0.0 0.0 0.00 0.00 0.00 53 1017.2
20260507175849 62 0 0.0 0.0 0.00 0.00 0.00 58 1017.1
20260507174845 61 0 0.0 0.0 0.00 0.00 0.00 53 1017.1
20260507173842 62 0 0.0 0.0 0.00 0.00 0.00 55 1017.0
20260507172839 64 0 0.0 0.0 0.00 0.00 0.00 53 1017.0
20260507171836 65 0 0.0 0.0 0.00 0.00 0.00 51 1016.9
20260507170832 65 0 0.0 0.0 0.00 0.00 0.00 51 1016.8
20260507165829 67 0 0.0 0.0 0.00 0.00 0.00 48 1016.7
20260507164826 68 0 0.0 0.0 0.00 0.00 0.00 46 1016.7
20260507163823 64 0 0.0 0.0 0.00 0.00 0.00 48 1016.8
20260507162819 65 0 0.0 0.0 0.00 0.00 0.00 45 1016.9
20260507161816 64 0 0.0 0.0 0.00 0.00 0.00 47 1016.9
20260507160813 65 0 0.0 0.0 0.00 0.00 0.00 47 1016.9
20260507155810 62 0 0.0 0.0 0.00 0.00 0.00 53 1016.9
20260507154806 61 0 0.0 0.0 0.00 0.00 0.00 50 1016.9
20260507153803 63 0 0.0 0.0 0.00 0.00 0.00 47 1017.0
20260507152800 64 0 0.0 0.0 0.00 0.00 0.00 48 1016.9
20260507151756 62 0 0.0 0.0 0.00 0.00 0.00 49 1016.9
20260507150753 62 0 0.0 0.0 0.00 0.00 0.00 51 1017.0
20260507145750 63 0 0.0 0.0 0.00 0.00 0.00 53 1017.0
20260507144748 62 0 0.0 0.0 0.00 0.00 0.00 50 1017.0
20260507143744 60 0 0.0 0.0 0.00 0.00 0.00 54 1017.1
20260507142740 61 0 0.0 0.0 0.00 0.00 0.00 55 1017.0
20260507141737 60 0 0.0 0.0 0.00 0.00 0.00 53 1017.1
20260507140734 60 0 0.0 0.0 0.00 0.00 0.00 54 1017.1
20260507135731 61 0 0.0 0.0 0.00 0.00 0.00 53 1017.1
20260507134728 63 0 0.0 0.0 0.00 0.00 0.00 52 1017.1
20260507133724 62 0 0.0 0.0 0.00 0.00 0.00 54 1017.2
20260507132721 63 0 0.0 0.0 0.00 0.00 0.00 53 1017.3
20260507131718 61 0 0.0 0.0 0.00 0.00 0.00 54 1017.3
20260507130714 60 0 0.0 0.0 0.00 0.00 0.00 57 1017.4
20260507125711 60 0 0.0 0.0 0.00 0.00 0.00 55 1017.4
20260507124708 60 0 0.0 0.0 0.00 0.00 0.00 58 1017.5
20260507123705 60 0 0.0 0.0 0.00 0.00 0.00 60 1017.3
20260507122701 59 0 0.0 0.0 0.00 0.00 0.00 59 1017.4
20260507121658 59 0 0.0 0.0 0.00 0.00 0.00 64 1017.3
20260507120655 59 0 0.0 0.0 0.00 0.00 0.00 63 1017.3
20260507115652 61 0 0.0 0.0 0.00 0.00 0.00 62 1017.2
20260507114648 60 0 0.0 0.0 0.00 0.00 0.00 65 1017.3
20260507113645 58 0 0.0 0.0 0.00 0.00 0.00 63 1017.5
20260507112642 59 0 0.0 0.0 0.00 0.00 0.00 62 1017.5
20260507111638 57 0 0.0 0.0 0.00 0.00 0.00 72 1017.6
20260507110635 56 0 0.0 0.0 0.00 0.00 0.00 74 1017.6
20260507105632 56 0 0.0 0.0 0.00 0.00 0.00 72 1017.7
20260507104629 56 0 0.0 0.0 0.00 0.00 0.00 70 1017.7
20260507103626 56 0 0.0 0.0 0.00 0.00 0.00 72 1017.7
20260507102622 56 0 0.0 0.0 0.00 0.00 0.00 76 1017.8
20260507101619 56 0 0.0 0.0 0.00 0.00 0.00 79 1017.8
20260507100616 55 0 0.0 0.0 0.00 0.00 0.00 77 1017.9
20260507095613 54 0 0.0 0.0 0.00 0.00 0.00 80 1017.9
20260507094609 53 0 0.0 0.0 0.00 0.00 0.00 82 1017.9
20260507093606 52 0 0.0 0.0 0.00 0.00 0.00 88 1017.9
20260507092603 52 0 0.0 0.0 0.00 0.00 0.00 85 1017.9
20260507091600 51 0 0.0 0.0 0.00 0.00 0.00 92 1017.8
20260507090556 51 0 0.0 0.0 0.00 0.00 0.00 90 1017.8
20260507085553 51 0 0.0 0.0 0.00 0.00 0.00 91 1017.6
20260507084550 50 0 0.0 0.0 0.00 0.00 0.00 92 1017.6
20260507083547 51 0 0.0 0.0 0.00 0.00 0.00 94 1017.5
20260507082544 50 0 0.0 0.0 0.00 0.00 0.00 97 1017.6
20260507081540 50 0 0.0 0.0 0.00 0.00 0.00 93 1017.6
20260507080537 50 0 0.0 0.0 0.00 0.00 0.00 95 1017.5
20260507075534 50 0 0.0 0.0 0.00 0.00 0.00 94 1017.4
20260507074530 50 0 0.0 0.0 0.00 0.00 0.00 95 1017.5
20260507073528 49 0 0.0 0.0 0.00 0.00 0.00 94 1017.4
20260507072524 49 0 0.0 0.0 0.00 0.00 0.00 95 1017.4
20260507071521 49 0 0.0 0.0 0.00 0.00 0.00 94 1017.3
20260507070517 49 0 0.0 0.0 0.00 0.00 0.00 93 1017.3
20260507065514 49 0 0.0 0.0 0.00 0.00 0.00 95 1017.2
20260507064511 49 0 0.0 0.0 0.00 0.00 0.00 94 1017.0
20260507063508 48 0 0.0 0.0 0.00 0.00 0.00 93 1017.1
20260507062504 49 0 0.0 0.0 0.00 0.00 0.00 96 1017.0
20260507061502 48 0 0.0 0.0 0.00 0.00 0.00 93 1016.9
20260507060458 48 0 0.0 0.0 0.00 0.00 0.00 91 1016.8
20260507055455 48 0 0.0 0.0 0.00 0.00 0.00 93 1016.7
20260507054451 48 0 0.0 0.0 0.00 0.00 0.00 93 1016.6
20260507053448 48 0 0.0 0.0 0.00 0.00 0.00 92 1016.6
20260507052445 48 0 0.0 0.0 0.00 0.00 0.00 92 1016.5
20260507051442 47 0 0.0 0.0 0.00 0.00 0.00 94 1016.4
20260507050438 47 0 0.0 0.0 0.00 0.00 0.00 95 1016.3
20260507045435 47 0 0.0 0.0 0.00 0.00 0.00 93 1016.2
20260507044432 47 0 0.0 0.0 0.00 0.00 0.00 94 1016.0
20260507043429 47 0 0.0 0.0 0.00 0.00 0.00 95 1016.0
20260507042426 47 0 0.0 0.0 0.00 0.00 0.00 92 1016.0
20260507041422 47 0 0.0 0.0 0.00 0.00 0.00 95 1015.9
20260507040419 47 0 0.0 0.0 0.00 0.00 0.00 94 1015.9
20260507035416 47 0 0.0 0.0 0.00 0.00 0.00 92 1015.8
20260507034412 47 0 0.0 0.0 0.00 0.00 0.00 92 1015.8
20260507033409 47 0 0.0 0.0 0.00 0.00 0.00 92 1015.7
20260507032406 47 0 0.0 0.0 0.00 0.00 0.00 92 1015.6
20260507031403 47 0 0.0 0.0 0.00 0.00 0.00 91 1015.6
20260507030359 47 0 0.0 0.0 0.00 0.00 0.00 90 1015.5
20260507025356 47 0 0.0 0.0 0.00 0.00 0.00 89 1015.5
20260507024353 47 0 0.0 0.0 0.00 0.00 0.00 88 1015.5
20260507023350 47 0 0.0 0.0 0.00 0.00 0.00 88 1015.4
20260507022346 47 0 0.0 0.0 0.00 0.00 0.00 89 1015.5
20260507021343 47 0 0.0 0.0 0.00 0.00 0.00 87 1015.4
20260507020340 47 0 0.0 0.0 0.00 0.00 0.00 88 1015.2
20260507015337 47 0 0.0 0.0 0.00 0.00 0.00 87 1015.2
20260507014333 47 0 0.0 0.0 0.00 0.00 0.00 86 1015.1
20260507013330 47 0 0.0 0.0 0.00 0.00 0.00 86 1015.1
20260507012328 47 0 0.0 0.0 0.00 0.00 0.00 86 1015.0
20260507011324 47 0 0.0 0.0 0.00 0.00 0.00 86 1015.0
20260507010321 48 0 0.0 0.0 0.00 0.00 0.00 86 1015.0
20260507005317 48 0 0.0 0.0 0.00 0.00 0.00 85 1014.9
20260507004314 48 0 0.0 0.0 0.00 0.00 0.00 86 1014.9
20260507003311 47 0 0.0 0.0 0.00 0.00 0.00 86 1014.9
20260507002308 47 0 0.0 0.0 0.00 0.00 0.00 87 1014.9
20260507001304 47 0 0.0 0.0 0.00 0.00 0.00 88 1014.9
20260507000301 47 0 0.0 0.0 0.00 0.00 0.00 87 1015.0
20260506235258 47 0 0.0 0.0 0.00 0.00 0.00 85 1014.8
20260506234254 47 0 0.0 0.0 0.00 0.00 0.00 88 1014.7
20260506233251 47 0 0.0 0.0 0.00 0.00 0.00 88 1014.7
20260506232248 47 0 0.0 0.0 0.00 0.00 0.00 88 1014.6
20260506231245 47 0 0.0 0.0 0.00 0.00 0.00 88 1014.6
20260506230241 47 0 0.0 0.0 0.00 0.00 0.00 91 1014.5
20260506225238 47 0 0.0 0.0 0.00 0.00 0.00 90 1014.6
20260506224235 48 0 0.0 0.0 0.00 0.00 0.00 87 1014.5
20260506223232 48 0 0.0 0.0 0.00 0.00 0.00 87 1014.5
20260506222228 48 0 0.0 0.0 0.00 0.00 0.00 86 1014.5
20260506221225 48 0 0.0 0.0 0.00 0.00 0.00 86 1014.4
20260506220222 48 0 0.0 0.0 0.00 0.00 0.00 85 1014.4
20260506215219 49 0 0.0 0.0 0.00 0.00 0.00 83 1014.4
20260506214215 49 0 0.0 0.0 0.00 0.00 0.00 84 1014.4
20260506213212 49 0 0.0 0.0 0.00 0.00 0.00 84 1014.4
20260506212209 48 0 0.0 0.0 0.00 0.00 0.00 84 1014.5
20260506211206 49 0 0.0 0.0 0.00 0.00 0.00 82 1014.5
20260506210202 49 0 0.0 0.0 0.00 0.00 0.00 82 1014.4
20260506205159 49 0 0.0 0.0 0.00 0.00 0.00 83 1014.3
20260506204156 49 0 0.0 0.0 0.00 0.00 0.00 82 1014.3
20260506203153 49 0 0.0 0.0 0.00 0.00 0.00 83 1014.3
20260506202149 49 0 0.0 0.0 0.00 0.00 0.00 82 1014.3
20260506201146 49 0 0.0 0.0 0.00 0.00 0.00 82 1014.3
20260506200143 49 0 0.0 0.0 0.00 0.00 0.00 80 1014.3
20260506195140 50 0 0.0 0.0 0.00 0.00 0.00 79 1014.2
20260506194137 50 0 0.0 0.0 0.00 0.00 0.00 79 1014.1
20260506193133 50 0 0.0 0.0 0.00 0.00 0.00 79 1013.9
20260506192130 50 0 0.0 0.0 0.00 0.00 0.00 79 1013.8
20260506191127 50 0 0.0 0.0 0.00 0.00 0.00 78 1013.6
20260506190123 50 0 0.0 0.0 0.00 0.00 0.00 77 1013.4
20260506185120 50 0 0.0 0.0 0.00 0.00 0.00 78 1013.4
20260506184117 50 0 0.0 0.0 0.00 0.00 0.00 77 1013.5
20260506183114 51 0 0.0 0.0 0.00 0.00 0.00 78 1013.2
20260506182110 51 0 0.0 0.0 0.00 0.00 0.00 78 1013.3